Regional Weather Roundup
Issued by NWS

Home | Current Version | Previous Version | Graphics & Text | Print | Product List | Glossary On
Versions: 1 2 3 4 5 6 7 8 9 10 11 12 13 14 15 16 17 18 19 20 21 22 23 24 25 26 27 28 29 30 31 32 33 34 35 36 37 38 39 40 41 42 43 44 45 46 47 48 49 50
000
ASUS43 KOAX 281710
RWRNE

WEATHER ROUNDUP FOR NEBRASKA
NATIONAL WEATHER SERVICE OMAHA NE
1100 AM CST SUN DEC 28 2014

NOTES: SATELLITE DATA IS BEING USED TO AUGMENT CLOUD COVER ABOVE
       12000 FEET.
       "FAIR" INDICATES FEW OR NO CLOUDS BELOW 12,000 FEET WITH NO
       SIGNIFICANT WEATHER AND/OR OBSTRUCTIONS TO VISIBILITY.

  * THESE STATIONS DO NOT REPORT WEATHER SUCH AS RAIN...SNOW OR FOG.

NEZ001>004-019>022-054>056-281800-
NEBRASKA PANHANDLE

CITY           SKY/WX    TMP DP  RH WIND       PRES   REMARKS
SCOTTSBLUFF    CLOUDY    16  10  77 S9        29.95S WCI   4
ALLIANCE       CLOUDY    23  12  62 S10       29.94S WCI  12
CHADRON        CLOUDY    15   7  70 E3        29.96S
KIMBALL        CLOUDY    25  14  62 W8        29.92S WCI  17
SIDNEY         CLOUDY    18   8  65 NW8       29.96F WCI   8
$$

NEZ057>060-069>072-079>082-281800-
SOUTHWEST NEBRASKA

CITY           SKY/WX    TMP DP  RH WIND       PRES   REMARKS
NORTH PLATTE   PTSUNNY   10   6  84 VRB3      30.05S
IMPERIAL       MOSUNNY   14   6  70 CALM      30.02S
LEXINGTON      PTSUNNY   15  10  81 NW6       30.07S WCI   7
MCCOOK         CLOUDY    15   8  73 W6        30.08S WCI   6
OGALLALA       CLOUDY    13   8  78 W5        30.03S WCI   6
$$

NEZ005>010-023>029-035>040-094-281800-
NORTH CENTRAL NEBRASKA

CITY           SKY/WX    TMP DP  RH WIND       PRES   REMARKS
VALENTINE      MOSUNNY   12   6  77 SW7       30.04R WCI   1
AINSWORTH      SUNNY     17   9  70 CALM      30.04S
BROKEN BOW     PTSUNNY   19  12  74 SE5       30.06R WCI  12
O`NEILL        PTSUNNY   13   9  84 CALM      30.08S
ORD            PTSUNNY   15  10  80 CALM      30.09R
THEDFORD       CLOUDY    18  13  81 CALM      30.04R
$$

NEZ041-046>049-061>064-073>077-083>087-281800-
SOUTH CENTRAL NEBRASKA

CITY           SKY/WX    TMP DP  RH WIND       PRES   REMARKS
GRAND ISLAND   MOSUNNY   20  11  68 W3        30.12R
AURORA         SUNNY     23  13  67 NW3       30.11S
HASTINGS       SUNNY     21  12  68 SW3       30.09S
HEBRON         SUNNY     29  20  68 SW6       30.15S WCI  23
HOLDREGE       MOSUNNY   19  11  73 SW5       30.08S WCI  12
KEARNEY *      MOSUNNY   18  10  73 S8        30.10R WCI   7
YORK           SUNNY     19  14  79 W3        30.13S
$$

NEZ011>018-030>034-042>045-281800-
NORTHEAST NEBRASKA

CITY           SKY/WX    TMP DP  RH WIND       PRES   REMARKS
NORFOLK        SUNNY     16  10  77 CALM      30.12R
ALBION         SUNNY     18  11  73 NW6       30.11R WCI  10
BLAIR          SUNNY     23  17  77 NW3       30.13F
COLUMBUS *     SUNNY     16   7  67 NW5       30.16R WCI   9
FREMONT        SUNNY     20  14  77 NW7       30.16S WCI  11
TEKAMAH        SUNNY     21  14  74 NW3       30.17S
WAYNE          SUNNY     18  10  72 CALM      30.14S
$$

NEZ050>053-065>068-078-088>093-281800-
SOUTHEAST NEBRASKA

CITY           SKY/WX    TMP DP  RH WIND       PRES   REMARKS
LINCOLN        SUNNY     26  16  65 W6        30.16F WCI  19
OMAHA EPPLEY   MOSUNNY   26  17  68 CALM      30.17F
BEATRICE       SUNNY     27  20  75 SW6       30.15F WCI  21
FALLS CITY     SUNNY     33  24  69 S10       30.19R WCI  25
NEBRASKA CITY  SUNNY     28  19  69 SW8       30.16R WCI  20
PLATTSMOUTH    SUNNY     26  18  72 W3        30.15F
$$

NEZ044-045-051>053-067-281800-
OMAHA AREA

CITY           SKY/WX    TMP DP  RH WIND       PRES   REMARKS
OMAHA EPPLEY   MOSUNNY   26  17  68 CALM      30.17F
BLAIR          SUNNY     23  17  77 NW3       30.13F
FREMONT        SUNNY     20  14  77 NW7       30.16S WCI  11
MILLARD        SUNNY     25  16  68 CALM      30.16S
OFFUTT AFB     SUNNY     24  17  72 VRB1      30.16S
PLATTSMOUTH    SUNNY     26  18  72 W3        30.15F
WAHOO          FAIR      23  14  69 NW5       30.15F WCI  16
$$



USA.gov is the U.S. government's official web portal to all federal, state and local government web resources and services.